FW8644 Weather Reports


Display with metric or nautical units.
time (UTC)temp
F
wind
direction
speed
MPH
gust
MPH
rain 1hr
in
rain 24hr
in
rain mn
in
humidity
%
barometer
mb
20260508023643 78 106 0.0 0.0 0.00 0.00 0.00 87 1018.1
20260508023142 78 106 0.0 0.0 0.00 0.00 0.00 87 1018.1
20260508022643 78 106 0.0 0.0 0.00 0.00 0.00 87 1018.1
20260508022148 79 106 0.0 0.0 0.00 0.00 0.00 87 1018.0
20260508022142 79 106 0.0 0.0 0.00 0.00 0.00 87 1018.0
20260508021142 79 106 0.0 0.0 0.00 0.00 0.00 87 1017.9
20260508020643 79 106 0.0 0.0 0.00 0.00 0.00 86 1018.0
20260508020143 79 106 0.0 0.0 0.00 0.00 0.00 86 1018.0
20260508015643 79 105 0.0 0.0 0.00 0.00 0.00 86 1017.9
20260508015143 79 106 0.0 3.0 0.00 0.00 0.00 86 1017.9
20260508014643 80 106 0.0 3.0 0.00 0.00 0.00 86 1017.8
20260508014144 80 49 0.0 2.0 0.00 0.00 0.00 86 1017.8
20260508013641 80 108 0.0 2.0 0.00 0.00 0.00 86 1017.8
20260508013141 80 100 0.0 2.0 0.00 0.00 0.00 86 1017.7
20260508012641 80 89 0.0 2.0 0.00 0.00 0.00 86 1017.7
20260508012141 80 115 0.0 2.0 0.00 0.00 0.00 86 1017.7
20260508011641 80 82 0.0 2.0 0.00 0.00 0.00 86 1017.6
20260508011138 80 128 0.0 6.0 0.00 0.00 0.00 86 1017.5
20260508010639 80 351 0.0 6.0 0.00 0.00 0.00 86 1017.6
20260508010140 80 85 0.0 4.0 0.00 0.00 0.00 86 1017.6
20260508005644 80 88 0.0 4.0 0.00 0.00 0.00 86 1017.5
20260508005639 80 100 0.0 4.0 0.00 0.00 0.00 85 1017.5
20260508004636 80 124 0.0 4.0 0.00 0.00 0.00 86 1017.5
20260508004137 80 103 0.0 4.0 0.00 0.00 0.00 86 1017.4
20260508003638 80 106 0.0 4.0 0.00 0.00 0.00 85 1017.4
20260508003140 80 58 0.0 4.0 0.00 0.00 0.00 85 1017.5
20260508003135 80 82 0.0 4.0 0.00 0.00 0.00 85 1017.3
20260508002137 80 108 0.0 5.0 0.00 0.00 0.00 85 1017.3
20260508001634 80 49 0.0 5.0 0.00 0.00 0.00 85 1017.3
20260508001140 80 108 0.0 4.0 0.00 0.00 0.00 85 1017.3
20260508001133 80 112 0.0 4.0 0.00 0.00 0.00 85 1017.3
20260508000635 80 65 0.0 4.0 0.00 0.00 0.00 85 1017.4
20260507235636 81 48 0.0 1.0 0.00 0.00 0.00 85 1017.3
20260507235632 80 110 0.0 4.0 0.00 0.00 0.00 85 1017.2
20260507234630 81 1 0.0 2.0 0.00 0.00 0.00 85 1017.3
20260507234130 81 86 0.0 4.0 0.00 0.00 0.00 85 1017.2
20260507233637 81 30 0.0 5.0 0.00 0.00 0.00 85 1016.9
20260507233631 81 108 0.0 4.0 0.00 0.00 0.00 85 1017.1
20260507232631 81 48 0.0 5.0 0.00 0.00 0.00 85 1016.8
20260507232132 81 54 1.0 5.0 0.00 0.00 0.00 85 1016.9
20260507231630 81 70 1.0 7.0 0.00 0.00 0.00 84 1016.7
20260507231132 81 86 1.0 5.0 0.00 0.00 0.00 85 1016.6
20260507231128 81 99 1.0 7.0 0.00 0.00 0.00 85 1016.6
20260507230128 81 101 1.0 6.0 0.00 0.00 0.00 85 1016.5
20260507225629 81 60 1.0 6.0 0.00 0.00 0.00 84 1016.5
20260507225128 81 116 0.0 5.0 0.00 0.00 0.00 84 1016.4
20260507224628 81 86 0.0 4.0 0.00 0.00 0.00 84 1016.2
20260507224126 81 5 1.0 7.0 0.00 0.00 0.00 84 1016.2
20260507223624 81 107 1.0 7.0 0.00 0.00 0.00 84 1016.2
20260507223125 82 76 1.0 5.0 0.00 0.00 0.00 84 1016.1
20260507222624 82 41 1.0 6.0 0.00 0.00 0.00 83 1016.0
20260507222124 82 100 1.0 6.0 0.00 0.00 0.00 83 1016.0
20260507221624 82 101 1.0 7.0 0.00 0.00 0.00 83 1016.1
20260507221124 82 96 1.0 7.0 0.00 0.00 0.00 83 1016.1
20260507220624 82 101 1.0 6.0 0.00 0.00 0.00 83 1016.1
20260507220129 82 109 1.0 6.0 0.00 0.00 0.00 83 1016.1
20260507220124 82 60 1.0 6.0 0.00 0.00 0.00 84 1016.2
20260507215124 82 81 1.0 7.0 0.00 0.00 0.00 83 1016.1
20260507214625 83 97 2.0 7.0 0.00 0.00 0.00 83 1015.9
20260507214130 83 99 1.0 5.0 0.00 0.00 0.00 82 1015.7
20260507214123 83 117 1.0 9.0 0.00 0.00 0.00 82 1015.9
20260507213624 83 88 1.0 9.0 0.00 0.00 0.00 82 1015.7
20260507212625 84 83 1.0 6.0 0.00 0.00 0.00 82 1015.7
20260507212124 84 91 1.0 11.0 0.00 0.00 0.00 82 1015.8
20260507211625 84 72 1.0 11.0 0.00 0.00 0.00 81 1015.7
20260507211125 84 79 1.0 7.0 0.00 0.00 0.00 82 1015.7
20260507210624 84 55 1.0 7.0 0.00 0.00 0.00 81 1015.8
20260507210124 84 71 1.0 5.0 0.00 0.00 0.00 81 1015.7
20260507205626 84 72 1.0 9.0 0.00 0.00 0.00 81 1015.7
20260507205124 85 120 2.0 9.0 0.00 0.00 0.00 80 1015.7
20260507204626 85 19 2.0 10.0 0.00 0.00 0.00 80 1015.7
20260507204128 85 83 2.0 8.0 0.00 0.00 0.00 81 1015.6
20260507204124 86 41 2.0 10.0 0.00 0.00 0.00 80 1015.7
20260507203124 85 88 2.0 8.0 0.00 0.00 0.00 80 1015.6
20260507202626 85 89 2.0 8.0 0.00 0.00 0.00 80 1015.7
20260507202124 86 122 2.0 8.0 0.00 0.00 0.00 79 1015.7
20260507201625 86 61 2.0 9.0 0.00 0.00 0.00 80 1015.7
20260507201124 86 84 2.0 9.0 0.00 0.00 0.00 79 1015.7
20260507200624 87 97 2.0 9.0 0.00 0.00 0.00 79 1015.7
20260507200124 87 112 1.0 9.0 0.00 0.00 0.00 79 1015.8
20260507195624 87 37 1.0 9.0 0.00 0.00 0.00 79 1015.9
20260507195124 87 105 2.0 9.0 0.00 0.00 0.00 79 1015.8
20260507194624 87 57 1.0 9.0 0.00 0.00 0.00 78 1015.8
20260507194129 87 60 2.0 9.0 0.00 0.00 0.00 78 1015.8
20260507194124 87 120 2.0 9.0 0.00 0.00 0.00 79 1015.9
20260507193122 87 150 2.0 9.0 0.00 0.00 0.00 78 1015.9
20260507192622 87 152 2.0 8.0 0.00 0.00 0.00 78 1015.8
20260507192121 88 171 2.0 9.0 0.00 0.00 0.00 77 1015.9
20260507191617 88 291 2.0 9.0 0.00 0.00 0.00 77 1016.0
20260507191119 88 124 2.0 8.0 0.00 0.00 0.00 77 1016.0
20260507190619 88 53 1.0 6.0 0.00 0.00 0.00 77 1016.0
20260507190119 89 109 2.0 10.0 0.00 0.00 0.00 78 1016.0
20260507185623 88 61 2.0 7.0 0.00 0.00 0.00 77 1016.1
20260507185618 88 67 3.0 10.0 0.00 0.00 0.00 78 1016.0
20260507184627 88 100 2.0 7.0 0.00 0.00 0.00 78 1016.0
20260507184500 89 87 2.0 9.0 0.00 0.00 0.00 77 1016.5
20260507184330 88 55 2.0 10.0 0.00 0.00 0.00 78 1016.5
20260507184139 89 95 2.0 11.0 0.00 0.00 0.00 77 1016.2
20260507184134 89 167 2.0 11.0 0.00 0.00 0.00 78 1016.7
20260507184127 89 333 2.0 9.0 0.00 0.00 0.00 77 1016.3
20260507184120 89 84 2.0 6.0 0.00 0.00 0.00 77 1016.1
20260507183952 89 139 2.0 9.0 0.00 0.00 0.00 77 1016.5
20260507183944 88 134 3.0 10.0 0.00 0.00 0.00 77 1016.2
20260507183823 88 92 3.0 10.0 0.00 0.00 0.00 78 1016.7
20260507183816 88 28 2.0 11.0 0.00 0.00 0.00 77 1016.7
20260507183810 88 82 3.0 11.0 0.00 0.00 0.00 79 1016.2
20260507174614 88 46 3.0 11.0 0.00 0.00 0.00 77 1016.8
20260507174114 88 49 2.0 11.0 0.00 0.00 0.00 77 1016.8
20260507173614 89 83 2.0 11.0 0.00 0.00 0.00 77 1016.9
20260507173124 89 14 2.0 9.0 0.00 0.00 0.00 77 1016.9
20260507172615 88 36 3.0 9.0 0.00 0.00 0.00 78 1017.1
20260507172114 89 139 2.0 11.0 0.00 0.00 0.00 76 1016.9
20260507171614 90 63 2.0 11.0 0.00 0.00 0.00 76 1017.1
20260507171123 89 57 2.0 11.0 0.00 0.00 0.00 77 1017.2
20260507170614 89 343 2.0 9.0 0.00 0.00 0.00 76 1017.2
20260507170115 89 78 2.0 8.0 0.00 0.00 0.00 78 1017.4
20260507165614 89 113 2.0 9.0 0.00 0.00 0.00 77 1017.4
20260507165114 89 63 2.0 9.0 0.00 0.00 0.00 77 1017.5
20260507164613 89 129 2.0 7.0 0.00 0.00 0.00 77 1017.6
20260507164113 89 30 2.0 8.0 0.00 0.00 0.00 77 1017.7
20260507163614 89 75 2.0 8.0 0.00 0.00 0.00 76 1017.8
20260507163113 89 134 2.0 7.0 0.00 0.00 0.00 76 1017.8
20260507162618 89 75 2.0 6.0 0.00 0.00 0.00 76 1017.9
20260507162426 89 46 2.0 9.0 0.00 0.00 0.00 76 1017.9
20260507161432 88 68 3.0 10.0 0.00 0.00 0.00 78 1017.9
20260507161427 88 71 2.0 9.0 0.00 0.00 0.00 78 1017.9
20260507160425 88 42 2.0 10.0 0.00 0.00 0.00 77 1018.1
20260507155924 89 64 2.0 9.0 0.00 0.00 0.00 78 1018.1
20260507155424 88 94 2.0 9.0 0.00 0.00 0.00 78 1018.1
20260507154924 88 118 2.0 9.0 0.00 0.00 0.00 78 1018.1
20260507154425 88 8 3.0 9.0 0.00 0.00 0.00 79 1018.3
20260507153925 88 56 3.0 9.0 0.00 0.00 0.00 78 1018.2
20260507153424 88 94 2.0 12.0 0.00 0.00 0.00 77 1018.2
20260507152958 88 86 3.0 7.0 0.00 0.00 0.00 78 1018.4
20260507152926 88 90 2.0 9.0 0.00 0.00 0.00 78 1018.3
20260507152114 88 117 2.0 7.0 0.00 0.00 0.00 78 1018.4
20260507150955 88 68 2.0 7.0 0.00 0.00 0.00 78 1018.4
20260507150452 88 115 2.0 8.0 0.00 0.00 0.00 79 1018.3
20260507145951 88 15 2.0 8.0 0.00 0.00 0.00 78 1018.4
20260507145452 88 27 2.0 8.0 0.00 0.00 0.00 77 1018.3
20260507144951 88 68 2.0 8.0 0.00 0.00 0.00 78 1018.3
20260507144453 88 52 2.0 8.0 0.00 0.00 0.00 78 1018.4
20260507143952 88 72 1.0 8.0 0.00 0.00 0.00 78 1018.4
20260507143458 88 82 2.0 6.0 0.00 0.00 0.00 78 1018.5
20260507143452 88 4 1.0 5.0 0.00 0.00 0.00 79 1018.4
20260507143111 88 68 1.0 7.0 0.00 0.00 0.00 78 1018.5
20260507141954 88 4 1.0 4.0 0.00 0.00 0.00 79 1018.5
20260507141406 88 302 1.0 4.0 0.00 0.00 0.00 79 1018.5
20260507140904 88 77 1.0 5.0 0.00 0.00 0.00 79 1018.4
20260507140406 88 79 1.0 5.0 0.00 0.00 0.00 79 1018.5
20260507135904 87 65 1.0 5.0 0.00 0.00 0.00 80 1018.5
20260507135404 87 35 1.0 6.0 0.00 0.00 0.00 79 1018.7
20260507134901 87 13 1.0 6.0 0.00 0.00 0.00 79 1018.6
20260507134403 87 22 1.0 5.0 0.00 0.00 0.00 79 1018.6
20260507133859 88 82 0.0 5.0 0.00 0.00 0.00 78 1018.6
20260507133401 87 62 0.0 4.0 0.00 0.00 0.00 79 1018.7
20260507132900 87 104 0.0 4.0 0.00 0.00 0.00 79 1018.7
20260507132405 87 15 0.0 5.0 0.00 0.00 0.00 79 1018.6
20260507132401 87 67 0.0 3.0 0.00 0.00 0.00 79 1018.7
20260507131402 87 345 0.0 5.0 0.00 0.00 0.00 77 1018.6
20260507130859 87 103 0.0 4.0 0.00 0.00 0.00 78 1018.6
20260507130401 87 103 0.0 4.0 0.00 0.00 0.00 77 1018.4
20260507125905 87 60 0.0 3.0 0.00 0.00 0.00 77 1018.4
20260507125859 87 42 0.0 3.0 0.00 0.00 0.00 78 1018.4
20260507124900 87 11 0.0 2.0 0.00 0.00 0.00 77 1018.3
20260507124357 87 46 0.0 1.0 0.00 0.00 0.00 77 1018.3
20260507123857 86 158 0.0 1.0 0.00 0.00 0.00 78 1018.3
20260507123358 86 41 0.0 2.0 0.00 0.00 0.00 78 1018.1
20260507122855 86 45 0.0 2.0 0.00 0.00 0.00 78 1018.1
20260507122357 86 127 0.0 1.0 0.00 0.00 0.00 79 1018.1
20260507121901 85 103 0.0 0.0 0.00 0.00 0.00 81 1017.9
20260507121855 86 4 0.0 0.0 0.00 0.00 0.00 81 1018.0
20260507120854 84 77 0.0 0.0 0.00 0.00 0.00 82 1017.9
20260507120354 83 114 0.0 1.0 0.00 0.00 0.00 83 1018.0
20260507115858 82 95 0.0 0.0 0.00 0.00 0.00 85 1017.9
20260507115853 83 81 0.0 1.0 0.00 0.00 0.00 84 1017.8
20260507115507 81 60 0.0 0.0 0.00 0.00 0.00 87 1017.8
20260507115021 79 87 0.0 1.0 0.00 0.00 0.00 90 1017.7
20260507115013 80 63 0.0 1.0 0.00 0.00 0.00 89 1017.7
20260507113357 78 82 0.0 0.0 0.00 0.00 0.00 91 1017.6
20260507113353 78 76 0.0 0.0 0.00 0.00 0.00 90 1017.5
20260507112353 78 82 0.0 0.0 0.00 0.00 0.00 92 1017.5
20260507111854 78 82 0.0 0.0 0.00 0.00 0.00 93 1017.6
20260507111354 77 82 0.0 0.0 0.00 0.00 0.00 93 1017.6
20260507110851 76 82 0.0 0.0 0.00 0.00 0.00 93 1017.4
20260507110351 75 82 0.0 0.0 0.00 0.00 0.00 93 1017.4
20260507105852 75 82 0.0 0.0 0.00 0.00 0.00 93 1017.4
20260507105357 73 83 0.0 0.0 0.00 0.00 0.00 93 1017.4
20260507105351 74 82 0.0 0.0 0.00 0.00 0.00 93 1017.3
20260507104352 73 82 0.0 0.0 0.00 0.00 0.00 93 1017.3
20260507103851 72 82 0.0 0.0 0.00 0.00 0.00 93 1017.4
20260507103352 72 82 0.0 0.0 0.00 0.00 0.00 93 1017.4
20260507102857 72 82 0.0 0.0 0.00 0.00 0.00 92 1017.3
20260507102851 72 82 0.0 0.0 0.00 0.00 0.00 92 1017.3
20260507101851 72 82 0.0 0.0 0.00 0.00 0.00 92 1017.3
20260507101351 72 82 0.0 0.0 0.00 0.00 0.00 92 1017.2
20260507100851 72 82 0.0 0.0 0.00 0.00 0.00 92 1017.2
20260507100351 72 83 0.0 0.0 0.00 0.00 0.00 92 1017.2
20260507095850 72 82 0.0 0.0 0.00 0.00 0.00 92 1017.1
20260507095351 72 82 0.0 0.0 0.00 0.00 0.00 92 1017.0
20260507094852 72 82 0.0 0.0 0.00 0.00 0.00 92 1017.0
20260507094351 72 82 0.0 0.0 0.00 0.00 0.00 92 1017.0
20260507093851 72 82 0.0 0.0 0.00 0.00 0.00 92 1016.9
20260507093349 72 82 0.0 0.0 0.00 0.00 0.00 92 1016.8
20260507092859 72 82 0.0 0.0 0.00 0.00 0.00 92 1016.8
20260507092349 72 83 0.0 0.0 0.00 0.00 0.00 92 1016.7
20260507091854 72 82 0.0 0.0 0.00 0.00 0.00 92 1017.0
20260507091849 72 82 0.0 0.0 0.00 0.00 0.00 92 1016.9
20260507091507 72 82 0.0 0.0 0.00 0.00 0.00 92 1017.0
20260507090859 72 82 0.0 0.0 0.00 0.00 0.00 92 1017.0
20260507090349 72 82 0.0 0.0 0.00 0.00 0.00 92 1017.0
20260507085351 72 82 0.0 0.0 0.00 0.00 0.00 92 1017.1
20260507084849 72 82 0.0 0.0 0.00 0.00 0.00 92 1017.1
20260507084351 72 82 0.0 0.0 0.00 0.00 0.00 92 1017.1
20260507083849 72 82 0.0 0.0 0.00 0.00 0.00 92 1017.2
20260507083349 72 82 0.0 0.0 0.00 0.00 0.00 92 1017.2
20260507082850 72 82 0.0 0.0 0.00 0.00 0.00 92 1017.2
20260507082349 72 82 0.0 0.0 0.00 0.00 0.00 92 1017.1
20260507081845 72 82 0.0 0.0 0.00 0.00 0.00 92 1017.2
20260507081346 72 82 0.0 0.0 0.00 0.00 0.00 92 1017.1
20260507080846 72 83 0.0 0.0 0.00 0.00 0.00 92 1017.1
20260507080346 72 83 0.0 0.0 0.00 0.00 0.00 91 1017.1
20260507075845 72 82 0.0 0.0 0.00 0.00 0.00 91 1017.0
20260507075348 73 82 0.0 0.0 0.00 0.00 0.00 91 1017.0
20260507075342 73 82 0.0 0.0 0.00 0.00 0.00 91 1017.1
20260507074341 73 82 0.0 0.0 0.00 0.00 0.00 91 1017.0
20260507073841 73 82 0.0 0.0 0.00 0.00 0.00 91 1017.0
20260507073342 73 82 0.0 0.0 0.00 0.00 0.00 91 1017.1
20260507072838 73 82 0.0 0.0 0.00 0.00 0.00 91 1017.1
20260507072338 73 82 0.0 0.0 0.00 0.00 0.00 91 1017.1
20260507071837 73 82 0.0 0.0 0.00 0.00 0.00 91 1017.2
20260507071338 73 82 0.0 0.0 0.00 0.00 0.00 91 1017.3
20260507070837 73 82 0.0 0.0 0.00 0.00 0.00 91 1017.4
20260507070343 73 82 0.0 0.0 0.00 0.00 0.00 90 1017.4
20260507070337 73 82 0.0 0.0 0.00 0.00 0.00 91 1017.5
20260507065837 73 82 0.0 0.0 0.00 0.00 0.00 91 1017.5
20260507064838 73 82 0.0 0.0 0.00 0.00 0.00 90 1017.4
20260507064339 73 82 0.0 0.0 0.00 0.00 0.00 90 1017.6
20260507063838 74 82 0.0 0.0 0.00 0.00 0.00 90 1017.6
20260507062957 74 82 0.0 0.0 0.00 0.00 0.00 90 1017.6
20260507062455 74 82 0.0 0.0 0.00 0.00 0.00 90 1017.7
20260507061955 74 82 0.0 0.0 0.00 0.00 0.00 90 1017.7
20260507061454 74 82 0.0 0.0 0.00 0.00 0.00 90 1017.7
20260507060955 74 82 0.0 0.0 0.00 0.00 0.00 90 1017.9
20260507060451 74 82 0.0 0.0 0.00 0.00 0.00 90 1017.8
20260507055954 74 82 0.0 0.0 0.00 0.00 0.00 89 1017.9
20260507054522 74 82 0.0 0.0 0.00 0.00 0.00 89 1018.0
20260507054022 74 82 0.0 0.0 0.00 0.00 0.00 89 1018.1
20260507053521 74 82 0.0 0.0 0.00 0.00 0.00 89 1018.3
20260507053022 74 82 0.0 0.0 0.00 0.00 0.00 89 1018.3
20260507052524 74 82 0.0 0.0 0.00 0.00 0.00 89 1018.5
20260507052520 74 82 0.0 0.0 0.00 0.00 0.00 89 1018.4
20260507051519 74 82 0.0 0.0 0.00 0.00 0.00 89 1018.5
20260507051018 74 82 0.0 0.0 0.00 0.00 0.00 89 1018.6
20260507050520 75 82 0.0 0.0 0.00 0.00 0.00 89 1018.7
20260507050016 75 82 0.0 0.0 0.00 0.00 0.00 89 1018.7
20260507045518 75 82 0.0 0.0 0.00 0.00 0.00 89 1018.7
20260507045016 75 82 0.0 0.0 0.00 0.00 0.00 89 1018.7
20260507044517 75 82 0.0 0.0 0.00 0.00 0.00 89 1018.9
20260507044017 75 82 0.0 0.0 0.00 0.00 0.00 88 1018.9
20260507043519 75 82 0.0 0.0 0.00 0.00 0.00 88 1019.0
20260507043016 75 82 0.0 0.0 0.00 0.00 0.00 88 1019.2
20260507042519 75 82 0.0 0.0 0.00 0.00 0.00 88 1019.3
20260507042016 75 82 0.0 0.0 0.00 0.00 0.00 88 1019.4
20260507041517 75 82 0.0 0.0 0.00 0.00 0.00 88 1019.5
20260507041026 75 82 0.0 0.0 0.00 0.00 0.00 88 1019.4
20260507040516 75 83 0.0 0.0 0.00 0.00 0.00 88 1019.5
20260507040016 75 82 0.0 0.0 0.00 0.00 0.00 88 1019.5
20260507035518 75 82 0.0 0.0 0.00 0.00 0.00 88 1019.5
20260507035017 75 82 0.0 0.0 0.00 0.00 0.00 88 1019.5
20260507034527 75 82 0.0 0.0 0.00 0.00 0.00 88 1019.5
20260507034019 75 82 0.0 0.0 0.00 0.00 0.00 87 1019.6
20260507033540 75 83 0.0 0.0 0.00 0.00 0.00 87 1019.6
20260507032544 76 82 0.0 0.0 0.00 0.00 0.00 87 1019.6
20260507032539 76 83 0.0 0.0 0.00 0.00 0.00 87 1019.6
20260507031540 76 82 0.0 0.0 0.00 0.00 0.00 87 1019.6
20260507031038 76 82 0.0 0.0 0.00 0.00 0.00 87 1019.6
20260507030538 76 82 0.0 0.0 0.00 0.00 0.00 87 1019.7
20260507030046 76 82 0.0 0.0 0.00 0.00 0.00 87 1019.6
20260507025546 76 82 0.0 0.0 0.00 0.00 0.00 87 1019.6
20260507025035 76 82 0.0 0.0 0.00 0.00 0.00 87 1019.7
20260507024541 76 82 0.0 0.0 0.00 0.00 0.00 87 1019.7
20260507024535 76 82 0.0 0.0 0.00 0.00 0.00 87 1019.8